When you browse on this site, cookies collect data to enhance your experience and personalize the content and advertising you see.
Visit our Privacy Policy to learn more. By continuing to use the site, you agree to this use of cookies and data.
  • In Netherlands
  • List of Countries
  • For 7 days
  • Water Temperature
  • Weather Map
  • Weather Widgets
  • user-avatar
    Login

    Hourly Weather Kranevo

    Today, 24 August, Saturday

    Time Temperature Precipitation Wind Pressure Humidity
    00:00 +25°C° 0 mm 4 mps 759 mmHg 66%
    01:00 +23°C° 0 mm 4 mps 759 mmHg 66%
    02:00 +23°C° 0 mm 4 mps 759 mmHg 67%
    03:00 +23°C° 0 mm 4 mps 759 mmHg 67%
    04:00 +23°C° 0 mm 5 mps 759 mmHg 67%
    05:00 +23°C° 0 mm 5 mps 759 mmHg 67%
    06:00 +25°C° 0 mm 5 mps 759 mmHg 62%
    07:00 +27°C° 0 mm 6 mps 759 mmHg 57%
    08:00 +29°C° 0 mm 6 mps 759 mmHg 51%
    09:00 +32°C° 0 mm 6 mps 760 mmHg 46%
    10:00 +34°C° 0 mm 7 mps 760 mmHg 41%
    11:00 +35°C° 0 mm 7 mps 760 mmHg 36%
    12:00 +35°C° 0 mm 7 mps 759 mmHg 36%
    13:00 +35°C° 0 mm 7 mps 759 mmHg 36%
    14:00 +35°C° 0 mm 7 mps 759 mmHg 36%
    15:00 +35°C° 0 mm 7 mps 759 mmHg 38%
    16:00 +34°C° 0 mm 7 mps 758 mmHg 41%
    17:00 +33°C° 0 mm 7 mps 758 mmHg 43%
    18:00 +30°C° 0 mm 6 mps 758 mmHg 51%
    19:00 +28°C° 0 mm 4 mps 758 mmHg 59%
    20:00 +26°C° 0 mm 3 mps 758 mmHg 66%
    21:00 +25°C° 0 mm 3 mps 758 mmHg 67%
    22:00 +25°C° 0 mm 3 mps 758 mmHg 68%
    23:00 +24°C° 0 mm 3 mps 758 mmHg 69%

    Tomorrow, 25 August, Sunday

    Time Temperature Precipitation Wind Pressure Humidity
    00:00 +24°C° 0 mm 3 mps 758 mmHg 69%
    01:00 +24°C° 0 mm 3 mps 758 mmHg 69%
    02:00 +24°C° 0 mm 3 mps 758 mmHg 69%
    03:00 +22°C° 0 mm 4 mps 758 mmHg 68%
    04:00 +22°C° 0 mm 4 mps 757 mmHg 68%
    05:00 +22°C° 0 mm 5 mps 757 mmHg 67%
    06:00 +25°C° 0 mm 5 mps 757 mmHg 64%
    07:00 +27°C° 0 mm 5 mps 758 mmHg 61%
    08:00 +29°C° 0 mm 5 mps 758 mmHg 58%
    09:00 +32°C° 0 mm 6 mps 758 mmHg 51%
    10:00 +34°C° 0 mm 7 mps 758 mmHg 44%
    11:00 +35°C° 0 mm 7 mps 758 mmHg 37%
    12:00 +35°C° 0 mm 8 mps 758 mmHg 38%
    13:00 +35°C° 0 mm 8 mps 758 mmHg 39%
    14:00 +35°C° 0 mm 8 mps 758 mmHg 40%
    15:00 +34°C° 0 mm 8 mps 757 mmHg 43%
    16:00 +33°C° 0 mm 8 mps 757 mmHg 47%
    17:00 +32°C° 0 mm 7 mps 757 mmHg 51%
    18:00 +29°C° 0 mm 6 mps 757 mmHg 61%
    19:00 +27°C° 0 mm 6 mps 758 mmHg 70%
    20:00 +25°C° 0 mm 5 mps 758 mmHg 80%
    21:00 +25°C° 0 mm 5 mps 758 mmHg 81%
    22:00 +23°C° 0 mm 4 mps 758 mmHg 82%
    23:00 +23°C° 0 mm 4 mps 758 mmHg 83%

    Day after tomorrow, 26 August, Monday

    Time Temperature Precipitation Wind Pressure Humidity
    00:00 +23°C° 0 mm 4 mps 758 mmHg 82%
    01:00 +23°C° 0 mm 4 mps 758 mmHg 82%
    02:00 +23°C° 0 mm 4 mps 758 mmHg 81%
    03:00 +23°C° 0 mm 4 mps 758 mmHg 82%
    04:00 +23°C° 0 mm 4 mps 758 mmHg 84%
    05:00 +22°C° 0 mm 4 mps 758 mmHg 86%
    06:00 +25°C° 0 mm 5 mps 758 mmHg 76%
    07:00 +27°C° 0 mm 5 mps 758 mmHg 66%
    08:00 +29°C° 0 mm 5 mps 758 mmHg 57%
    09:00 +32°C° 0 mm 6 mps 758 mmHg 50%
    10:00 +33°C° 0 mm 7 mps 759 mmHg 43%
    11:00 +35°C° 0 mm 7 mps 759 mmHg 37%
    12:00 +35°C° 0 mm 8 mps 759 mmHg 36%
    13:00 +35°C° 0 mm 8 mps 758 mmHg 36%
    14:00 +35°C° 0 mm 8 mps 758 mmHg 35%
    15:00 +34°C° 0 mm 8 mps 758 mmHg 39%
    16:00 +33°C° 0 mm 8 mps 758 mmHg 43%
    17:00 +31°C° 0 mm 8 mps 758 mmHg 47%
    18:00 +28°C° 0 mm 7 mps 758 mmHg 57%
    19:00 +26°C° 0 mm 5 mps 758 mmHg 68%
    20:00 +23°C° 0 mm 4 mps 758 mmHg 78%
    21:00 +22°C° 0 mm 4 mps 758 mmHg 81%
    22:00 +22°C° 0 mm 3 mps 758 mmHg 84%
    23:00 +21°C° 0 mm 3 mps 758 mmHg 87%

    27 August, Tuesday

    Time Temperature Precipitation Wind Pressure Humidity
    00:00 +21°C° 0 mm 3 mps 758 mmHg 88%
    01:00 +21°C° 0 mm 3 mps 758 mmHg 88%
    02:00 +20°C° 0 mm 3 mps 758 mmHg 89%
    03:00 +20°C° 0 mm 3 mps 758 mmHg 88%
    04:00 +20°C° 0 mm 4 mps 758 mmHg 87%
    05:00 +20°C° 0 mm 4 mps 758 mmHg 86%
    06:00 +22°C° 0 mm 4 mps 758 mmHg 75%
    07:00 +25°C° 0 mm 4 mps 758 mmHg 65%
    08:00 +27°C° 0 mm 4 mps 758 mmHg 54%
    09:00 +29°C° 0 mm 5 mps 758 mmHg 48%
    10:00 +32°C° 0 mm 5 mps 758 mmHg 41%
    11:00 +34°C° 0 mm 6 mps 759 mmHg 34%
    12:00 +34°C° 0 mm 6 mps 758 mmHg 34%
    13:00 +34°C° 0 mm 7 mps 758 mmHg 33%
    14:00 +34°C° 0 mm 7 mps 758 mmHg 33%
    15:00 +33°C° 0 mm 7 mps 758 mmHg 37%
    16:00 +32°C° 0 mm 7 mps 758 mmHg 40%
    17:00 +30°C° 0 mm 7 mps 758 mmHg 44%
    18:00 +28°C° 0 mm 6 mps 758 mmHg 57%
    19:00 +25°C° 0 mm 5 mps 758 mmHg 70%
    20:00 +22°C° 0 mm 4 mps 758 mmHg 83%
    21:00 +21°C° 0 mm 4 mps 758 mmHg 84%
    22:00 +21°C° 0 mm 3 mps 758 mmHg 85%
    23:00 +20°C° 0 mm 2 mps 758 mmHg 86%

    28 August, Wednesday

    Time Temperature Precipitation Wind Pressure Humidity
    00:00 +20°C° 0 mm 2 mps 758 mmHg 84%
    01:00 +20°C° 0 mm 3 mps 758 mmHg 82%
    02:00 +20°C° 0 mm 3 mps 758 mmHg 80%
    03:00 +19°C° 0 mm 3 mps 758 mmHg 78%
    04:00 +19°C° 0 mm 4 mps 758 mmHg 76%
    05:00 +19°C° 0 mm 4 mps 758 mmHg 74%
    06:00 +21°C° 0 mm 5 mps 759 mmHg 66%
    07:00 +23°C° 0 mm 5 mps 759 mmHg 57%
    08:00 +26°C° 0 mm 5 mps 759 mmHg 49%
    09:00 +28°C° 0 mm 6 mps 759 mmHg 42%
    10:00 +30°C° 0 mm 7 mps 759 mmHg 36%
    11:00 +33°C° 0 mm 7 mps 759 mmHg 29%
    12:00 +33°C° 0 mm 7 mps 759 mmHg 29%
    13:00 +33°C° 0 mm 7 mps 759 mmHg 29%
    14:00 +33°C° 0 mm 7 mps 758 mmHg 29%
    15:00 +32°C° 0 mm 7 mps 758 mmHg 32%
    16:00 +30°C° 0 mm 7 mps 758 mmHg 35%
    17:00 +29°C° 0 mm 7 mps 758 mmHg 39%
    18:00 +26°C° 0 mm 6 mps 758 mmHg 50%
    19:00 +23°C° 0 mm 5 mps 758 mmHg 61%
    20:00 +20°C° 0 mm 4 mps 758 mmHg 71%
    21:00 +20°C° 0 mm 4 mps 758 mmHg 75%
    22:00 +19°C° 0 mm 3 mps 758 mmHg 79%
    23:00 +18°C° 0 mm 3 mps 758 mmHg 83%

    29 August, Thursday

    Time Temperature Precipitation Wind Pressure Humidity
    00:00 +18°C° 0 mm 2 mps 758 mmHg 83%
    01:00 +18°C° 0 mm 2 mps 758 mmHg 84%
    02:00 +18°C° 0 mm 2 mps 758 mmHg 84%
    03:00 +17°C° 0 mm 2 mps 758 mmHg 82%
    04:00 +17°C° 0 mm 3 mps 758 mmHg 81%
    05:00 +17°C° 0 mm 3 mps 758 mmHg 79%
    06:00 +19°C° 0 mm 3 mps 758 mmHg 70%
    07:00 +21°C° 0 mm 4 mps 758 mmHg 61%
    08:00 +23°C° 0 mm 4 mps 758 mmHg 52%
    09:00 +27°C° 0 mm 4 mps 758 mmHg 45%
    10:00 +29°C° 0 mm 5 mps 758 mmHg 39%
    11:00 +32°C° 0 mm 5 mps 758 mmHg 33%
    12:00 +32°C° 0 mm 6 mps 758 mmHg 34%
    13:00 +32°C° 0 mm 6 mps 757 mmHg 36%
    14:00 +32°C° 0 mm 6 mps 757 mmHg 37%
    15:00 +30°C° 0 mm 6 mps 757 mmHg 39%
    16:00 +29°C° 0 mm 6 mps 757 mmHg 41%
    17:00 +28°C° 0 mm 5 mps 757 mmHg 43%
    18:00 +26°C° 0 mm 5 mps 757 mmHg 55%
    19:00 +23°C° 0 mm 4 mps 757 mmHg 66%
    20:00 +21°C° 0 mm 4 mps 757 mmHg 78%
    21:00 +20°C° 0 mm 3 mps 757 mmHg 82%
    22:00 +20°C° 0 mm 3 mps 757 mmHg 85%
    23:00 +20°C° 0 mm 3 mps 757 mmHg 89%
    Show more